Home > Weather > Lampertheim > Past weeks

Flag for Germany Past Weather in Lampertheim, Hesse, Germany — Yesterday and Last 2 Weeks

Now
70 °F

Passing clouds.


Feels Like: 70 °F
Forecast: 59 / 78 °F
Wind: 10 mph from North

Location: Mannheim City

Current Time: Aug 29, 2016 at 9:58:58 PM

Latest Report: Aug 29, 2016 at 9:20 PM


Visibility: N/A

Pressure: 30.15 "Hg

Humidity: 64%

Dew Point: 57 °F

Location of LampertheimLocation

Past Weather in Lampertheim — Graph

°F

Lampertheim Temperature Yesterday

Maximum temperature yesterday: 88 °F (at 12:20 PM)
Minimum temperature yesterday: 73 °F (at 7:50 AM)
Average temperature yesterday: 79 °F

High & Low Weather Summary for the Past Weeks

 TemperatureHumidityPressure
High95 °F (Aug 26, 5:20 PM)100% (Aug 19, 5:20 AM)30.39 "Hg (Aug 19, 5:20 AM)
Low54 °F (Aug 18, 6:20 AM)23% (Aug 25, 4:50 PM)29.80 "Hg (Aug 18, 4:20 PM)
Average74 °F60%30.06 "Hg
* Reported Aug 15 5:50 AM — Aug 29 8:20 PM, Lampertheim, Weather by CustomWeather, © 2016

Note: Actual official high and low records may vary slightly from our data, if they occured in-between our weather recording intervals... More about our weather records

Advertising

Lampertheim Weather History for the Previous 24 Hours

Scroll right to see more
 ConditionsComfort  
Time TempWeatherWind HumidityBarometerVisibility
8:20 PM
Mon, Aug 29
75 °FSunny.10 mph47%30.12 "Hg10 mi
7:50 PM75 °FSunny.14 mph47%30.12 "Hg10 mi
7:20 PM75 °FPassing clouds.7 mph47%30.09 "HgN/A
6:50 PM77 °FPassing clouds.6 mph42%30.09 "HgN/A
6:20 PM77 °FPassing clouds.7 mph47%30.09 "HgN/A
5:50 PM77 °FPassing clouds.9 mph44%30.09 "HgN/A
5:20 PM79 °FPassing clouds.9 mph39%30.09 "HgN/A
4:50 PM79 °FPassing clouds.7 mph37%30.07 "HgN/A
4:20 PM81 °FSunny.7 mph34%30.07 "Hg10 mi
3:50 PM79 °FPassing clouds.6 mph34%30.07 "HgN/A
3:20 PM81 °FPassing clouds.6 mph30%30.07 "HgN/A
2:50 PM81 °FPassing clouds.8 mph30%30.07 "HgN/A
2:20 PM81 °FPassing clouds.9 mph32%30.07 "HgN/A
1:50 PM79 °FPassing clouds.10 mph42%30.09 "HgN/A
1:20 PM79 °FPassing clouds.10 mph42%30.09 "HgN/A
12:50 PM79 °FPassing clouds.12 mph42%30.09 "HgN/A
12:20 PM79 °FScattered clouds.10 mph42%30.09 "HgN/A
11:50 AM77 °FScattered clouds.6 mph51%30.09 "HgN/A
11:20 AM77 °FScattered clouds.5 mph54%30.09 "HgN/A
10:50 AM75 °FSunny.2 mph61%30.09 "Hg10 mi
10:20 AM72 °FSunny.6 mph69%30.07 "Hg10 mi
9:50 AM73 °FSunny.3 mph65%30.07 "Hg10 mi
9:20 AM72 °FSunny.3 mph78%30.07 "Hg10 mi
8:50 AM70 °FSunny.6 mph78%30.07 "Hg10 mi
8:20 AM68 °FSunny.5 mph83%30.07 "Hg10 mi
7:50 AM68 °FSunny.3 mph88%30.07 "Hg10 mi
7:20 AM68 °FClear.3 mph83%30.07 "Hg10 mi
6:50 AM68 °FClear.2 mph83%30.04 "Hg10 mi
6:20 AM68 °FClear.5 mph83%30.04 "Hg10 mi
5:50 AM68 °FClear.3 mph88%30.04 "Hg10 mi
11:20 PM
Sun, Aug 28
77 °FClear.8 mph51%30.01 "Hg10 mi
10:50 PM77 °FClear.12 mph47%30.01 "Hg10 mi
10:20 PM79 °FClear.13 mph45%30.01 "Hg10 mi
Weather by CustomWeather, © 2016

See weather overviewHow to use our weather pages